Time,TemperatureF,DewpointF,PressureIn,WindDirection,WindDirectionDegrees,WindSpeedMPH,WindSpeedGustMPH,Humidity,HourlyPrecipIn,Conditions,Clouds,dailyrainin,SolarRadiationWatts/m^2,SoftwareType,DateUTC
2013-01-30 00:13:00,45.8,44.0,30.00,SW,231,3.0,-999.0,93,-99.99,,,0.00,0,weatherlink.com 1.10,2013-01-30 05:13:00,
2013-01-30 00:28:00,46.1,44.0,30.00,SSE,150,5.0,-999.0,92,-99.99,,,0.00,0,weatherlink.com 1.10,2013-01-30 05:28:00,
2013-01-30 00:43:00,46.2,44.0,29.99,South,175,5.0,-999.0,92,-99.99,,,0.00,0,weatherlink.com 1.10,2013-01-30 05:43:00,
2013-01-30 00:58:00,46.2,44.0,29.98,SW,219,9.0,-999.0,92,-99.99,,,0.00,0,weatherlink.com 1.10,2013-01-30 05:58:00,
2013-01-30 01:13:00,46.1,44.0,29.98,SSW,205,3.0,-999.0,91,-99.99,,,0.00,0,weatherlink.com 1.10,2013-01-30 06:13:00,
2013-01-30 01:28:00,45.9,44.0,29.97,SW,219,2.0,-999.0,91,-99.99,,,0.00,0,weatherlink.com 1.10,2013-01-30 06:28:00,
2013-01-30 01:43:00,46.0,44.0,29.96,WSW,238,4.0,-999.0,92,-99.99,,,0.00,0,weatherlink.com 1.10,2013-01-30 06:43:00,
2013-01-30 01:58:00,46.1,44.0,29.96,SSW,205,3.0,-999.0,92,-99.99,,,0.00,0,weatherlink.com 1.10,2013-01-30 06:58:00,
2013-01-30 02:13:00,46.2,44.0,29.95,WSW,242,1.0,-999.0,92,-99.99,,,0.00,0,weatherlink.com 1.10,2013-01-30 07:13:00,
2013-01-30 02:28:00,46.4,44.0,29.94,West,272,0.0,-999.0,92,-99.99,,,0.00,0,weatherlink.com 1.10,2013-01-30 07:28:00,
2013-01-30 02:43:00,46.2,44.0,29.93,West,272,0.0,-999.0,91,-99.99,,,0.00,0,weatherlink.com 1.10,2013-01-30 07:43:00,
2013-01-30 02:58:00,45.2,43.0,29.91,SW,223,0.0,-999.0,91,-99.99,,,0.00,0,weatherlink.com 1.10,2013-01-30 07:58:00,
2013-01-30 03:13:00,43.9,41.0,29.90,SW,224,1.0,-999.0,90,-99.99,,,0.00,0,weatherlink.com 1.10,2013-01-30 08:13:00,
2013-01-30 03:28:00,43.3,41.0,29.90,SW,224,0.0,-999.0,91,-99.99,,,0.00,0,weatherlink.com 1.10,2013-01-30 08:28:00,
2013-01-30 03:43:00,44.2,42.0,29.88,SSW,205,9.0,-999.0,93,-99.99,,,0.00,0,weatherlink.com 1.10,2013-01-30 08:43:00,
2013-01-30 03:58:00,46.2,44.0,29.86,WSW,238,5.0,-999.0,93,-99.99,,,0.00,0,weatherlink.com 1.10,2013-01-30 08:58:00,
2013-01-30 04:13:00,47.0,45.0,29.86,South,186,5.0,-999.0,92,-99.99,,,0.00,0,weatherlink.com 1.10,2013-01-30 09:13:00,
2013-01-30 04:28:00,47.7,45.0,29.86,SW,219,5.0,-999.0,90,-99.99,,,0.00,0,weatherlink.com 1.10,2013-01-30 09:28:00,
2013-01-30 04:43:00,48.7,45.0,29.85,SW,219,6.0,-999.0,88,-99.99,,,0.00,0,weatherlink.com 1.10,2013-01-30 09:43:00,
2013-01-30 04:58:00,49.5,46.0,29.85,South,177,5.0,-999.0,86,-99.99,,,0.00,0,weatherlink.com 1.10,2013-01-30 09:58:00,
2013-01-30 05:13:00,50.1,46.0,29.85,WSW,250,6.0,-999.0,86,-99.99,,,0.00,0,weatherlink.com 1.10,2013-01-30 10:13:00,
2013-01-30 05:28:00,51.3,48.0,29.84,SW,217,6.0,-999.0,87,-99.99,,,0.00,0,weatherlink.com 1.10,2013-01-30 10:28:00,
2013-01-30 05:43:00,52.4,49.0,29.83,SW,221,6.0,-999.0,88,-99.99,,,0.00,0,weatherlink.com 1.10,2013-01-30 10:43:00,
2013-01-30 05:58:00,53.6,50.0,29.82,SSW,209,6.0,-999.0,86,-99.99,,,0.00,0,weatherlink.com 1.10,2013-01-30 10:58:00,
2013-01-30 06:13:00,55.1,50.0,29.80,SSE,166,8.0,-999.0,84,-99.99,,,0.01,0,weatherlink.com 1.10,2013-01-30 11:13:00,
2013-01-30 06:28:00,55.8,50.0,29.79,SSW,194,11.0,-999.0,82,-99.99,,,0.01,0,weatherlink.com 1.10,2013-01-30 11:28:00,
2013-01-30 06:43:00,56.1,50.0,29.79,WSW,246,13.0,-999.0,80,-99.99,,,0.01,0,weatherlink.com 1.10,2013-01-30 11:43:00,
2013-01-30 06:58:00,55.9,50.0,29.77,WSW,242,10.0,-999.0,81,-99.99,,,0.01,0,weatherlink.com 1.10,2013-01-30 11:58:00,
2013-01-30 07:13:00,55.2,50.0,29.76,SE,130,6.0,-999.0,82,-99.99,,,0.01,0,weatherlink.com 1.10,2013-01-30 12:13:00,
2013-01-30 07:43:00,54.3,49.0,29.76,SW,223,10.0,-999.0,81,-99.99,,,0.01,18,weatherlink.com 1.10,2013-01-30 12:43:00,
2013-01-30 07:58:00,54.1,48.0,29.76,South,171,18.0,-999.0,81,-99.99,,,0.01,32,weatherlink.com 1.10,2013-01-30 12:58:00,
2013-01-30 08:13:00,54.1,49.0,29.75,WSW,237,9.0,-999.0,82,-99.99,,,0.01,37,weatherlink.com 1.10,2013-01-30 13:13:00,
2013-01-30 08:28:00,54.6,50.0,29.74,South,173,4.0,-999.0,83,-99.99,,,0.01,67,weatherlink.com 1.10,2013-01-30 13:28:00,
2013-01-30 08:43:00,54.6,49.0,29.74,South,184,5.0,-999.0,82,-99.99,,,0.01,72,weatherlink.com 1.10,2013-01-30 13:43:00,
2013-01-30 08:58:00,54.1,49.0,29.73,South,185,6.0,-999.0,82,-99.99,,,0.01,77,weatherlink.com 1.10,2013-01-30 13:58:00,
2013-01-30 09:13:00,54.0,49.0,29.71,WSW,239,14.0,-999.0,84,-99.99,,,0.01,107,weatherlink.com 1.10,2013-01-30 14:13:00,
2013-01-30 09:28:00,55.6,51.0,29.72,SSW,211,13.0,-999.0,83,-99.99,,,0.01,88,weatherlink.com 1.10,2013-01-30 14:28:00,
2013-01-30 09:43:00,56.0,51.0,29.71,West,280,6.0,-999.0,82,-99.99,,,0.01,74,weatherlink.com 1.10,2013-01-30 14:43:00,
2013-01-30 09:58:00,56.0,51.0,29.70,West,278,14.0,-999.0,82,-99.99,,,0.01,97,weatherlink.com 1.10,2013-01-30 14:58:00,
2013-01-30 10:13:00,56.9,52.0,29.69,WSW,251,16.0,-999.0,83,-99.99,,,0.01,111,weatherlink.com 1.10,2013-01-30 15:13:00,
2013-01-30 10:28:00,58.9,53.0,29.67,SSW,192,23.0,-999.0,81,-99.99,,,0.01,192,weatherlink.com 1.10,2013-01-30 15:28:00,
2013-01-30 10:43:00,60.6,53.0,29.66,SSW,212,5.0,-999.0,77,-99.99,,,0.01,141,weatherlink.com 1.10,2013-01-30 15:43:00,
2013-01-30 10:58:00,60.1,53.0,29.66,SW,215,6.0,-999.0,77,-99.99,,,0.01,410,weatherlink.com 1.10,2013-01-30 15:58:00,
2013-01-30 11:13:00,60.0,53.0,29.65,WSW,257,3.0,-999.0,77,-99.99,,,0.01,236,weatherlink.com 1.10,2013-01-30 16:13:00,
2013-01-30 11:28:00,59.8,53.0,29.63,SSW,202,6.0,-999.0,77,-99.99,,,0.01,213,weatherlink.com 1.10,2013-01-30 16:28:00,
2013-01-30 11:43:00,60.1,53.0,29.62,SSW,194,9.0,-999.0,76,-99.99,,,0.01,248,weatherlink.com 1.10,2013-01-30 16:43:00,
2013-01-30 11:58:00,58.7,52.0,29.61,South,190,10.0,-999.0,79,-99.99,,,0.01,169,weatherlink.com 1.10,2013-01-30 16:58:00,
2013-01-30 12:14:00,57.6,52.0,29.60,WSW,252,9.0,-999.0,81,-99.99,,,0.01,137,weatherlink.com 1.10,2013-01-30 17:14:00,
2013-01-30 12:28:00,57.5,52.0,29.60,SSW,200,12.0,-999.0,81,-99.99,,,0.01,171,weatherlink.com 1.10,2013-01-30 17:28:00,
2013-01-30 12:43:00,56.9,52.0,29.60,SW,218,6.0,-999.0,82,-99.99,,,0.01,69,weatherlink.com 1.10,2013-01-30 17:43:00,
2013-01-30 12:58:00,56.8,52.0,29.58,South,178,17.0,-999.0,84,-99.99,,,0.01,58,weatherlink.com 1.10,2013-01-30 17:58:00,
2013-01-30 13:13:00,56.9,52.0,29.56,SSW,196,23.0,-999.0,84,-99.99,,,0.01,84,weatherlink.com 1.10,2013-01-30 18:13:00,
2013-01-30 13:28:00,56.8,52.0,29.54,South,190,10.0,-999.0,84,-99.99,,,0.01,26,weatherlink.com 1.10,2013-01-30 18:28:00,
2013-01-30 13:43:00,56.5,52.0,29.54,SSE,168,10.0,-999.0,86,-99.99,,,0.01,25,weatherlink.com 1.10,2013-01-30 18:43:00,
2013-01-30 13:58:00,56.5,52.0,29.54,SSW,213,10.0,-999.0,86,-99.99,,,0.01,21,weatherlink.com 1.10,2013-01-30 18:58:00,
2013-01-30 14:28:00,56.4,53.0,29.54,SW,217,5.0,-999.0,87,-99.99,,,0.01,19,weatherlink.com 1.10,2013-01-30 19:28:00,
2013-01-30 14:43:00,56.8,53.0,29.53,SW,236,7.0,-999.0,86,-99.99,,,0.01,12,weatherlink.com 1.10,2013-01-30 19:43:00,
2013-01-30 14:58:00,57.0,53.0,29.52,South,186,4.0,-999.0,86,-99.99,,,0.01,18,weatherlink.com 1.10,2013-01-30 19:58:00,
2013-01-30 15:13:00,57.0,53.0,29.52,SW,221,4.0,-999.0,87,-99.99,,,0.01,23,weatherlink.com 1.10,2013-01-30 20:13:00,
2013-01-30 15:28:00,56.8,53.0,29.52,WSW,242,12.0,-999.0,87,-99.99,,,0.01,0,weatherlink.com 1.10,2013-01-30 20:28:00,
2013-01-30 15:43:00,56.9,53.0,29.53,SW,221,19.0,-999.0,87,-99.99,,,0.01,0,weatherlink.com 1.10,2013-01-30 20:43:00,
2013-01-30 15:58:00,56.9,53.0,29.53,SSW,209,5.0,-999.0,88,-99.99,,,0.01,0,weatherlink.com 1.10,2013-01-30 20:58:00,
2013-01-30 16:13:00,56.2,53.0,29.53,WSW,244,9.0,-999.0,89,-99.99,,,0.02,9,weatherlink.com 1.10,2013-01-30 21:13:00,
2013-01-30 16:28:00,55.8,53.0,29.52,SSW,200,4.0,-999.0,89,-99.99,,,0.02,7,weatherlink.com 1.10,2013-01-30 21:28:00,
2013-01-30 16:43:00,55.8,53.0,29.53,SSW,196,6.0,-999.0,89,-99.99,,,0.02,7,weatherlink.com 1.10,2013-01-30 21:43:00,
2013-01-30 16:58:00,55.8,53.0,29.53,South,186,2.0,-999.0,89,-99.99,,,0.03,0,weatherlink.com 1.10,2013-01-30 21:58:00,
2013-01-30 17:13:00,55.6,53.0,29.52,SSW,204,8.0,-999.0,89,-99.99,,,0.03,0,weatherlink.com 1.10,2013-01-30 22:13:00,
2013-01-30 17:28:00,55.4,52.0,29.51,SSW,210,2.0,-999.0,89,-99.99,,,0.03,0,weatherlink.com 1.10,2013-01-30 22:28:00,
2013-01-30 17:43:00,55.4,52.0,29.50,SW,218,2.0,-999.0,88,-99.99,,,0.03,0,weatherlink.com 1.10,2013-01-30 22:43:00,
2013-01-30 17:58:00,55.3,52.0,29.52,WSW,241,4.0,-999.0,88,-99.99,,,0.03,0,weatherlink.com 1.10,2013-01-30 22:58:00,
2013-01-30 18:13:00,55.4,52.0,29.52,South,182,2.0,-999.0,88,-99.99,,,0.03,0,weatherlink.com 1.10,2013-01-30 23:13:00,
2013-01-30 18:28:00,55.1,52.0,29.52,SSW,211,7.0,-999.0,88,-99.99,,,0.04,0,weatherlink.com 1.10,2013-01-30 23:28:00,
2013-01-30 18:43:00,54.7,52.0,29.51,South,178,3.0,-999.0,89,-99.99,,,0.04,0,weatherlink.com 1.10,2013-01-30 23:43:00,
2013-01-30 19:13:00,54.0,51.0,29.50,South,174,3.0,-999.0,90,-99.99,,,0.04,0,weatherlink.com 1.10,2013-01-31 00:13:00,
2013-01-30 19:28:00,54.0,52.0,29.50,SW,221,2.0,-999.0,91,-99.99,,,0.04,0,weatherlink.com 1.10,2013-01-31 00:28:00,
2013-01-30 19:43:00,53.7,51.0,29.50,SW,221,2.0,-999.0,91,-99.99,,,0.05,0,weatherlink.com 1.10,2013-01-31 00:43:00,
2013-01-30 19:58:00,53.5,51.0,29.49,SSW,200,3.0,-999.0,91,-99.99,,,0.05,0,weatherlink.com 1.10,2013-01-31 00:58:00,
2013-01-30 20:13:00,53.3,51.0,29.47,SW,220,5.0,-999.0,91,-99.99,,,0.06,0,weatherlink.com 1.10,2013-01-31 01:13:00,
2013-01-30 20:29:00,53.4,51.0,29.47,SW,219,2.0,-999.0,91,-99.99,,,0.06,0,weatherlink.com 1.10,2013-01-31 01:29:00,
2013-01-30 20:43:00,53.4,51.0,29.46,South,190,3.0,-999.0,90,-99.99,,,0.06,0,weatherlink.com 1.10,2013-01-31 01:43:00,
2013-01-30 20:58:00,53.4,51.0,29.46,South,188,2.0,-999.0,90,-99.99,,,0.06,0,weatherlink.com 1.10,2013-01-31 01:58:00,
2013-01-30 21:13:00,53.4,50.0,29.45,SSW,205,6.0,-999.0,89,-99.99,,,0.07,0,weatherlink.com 1.10,2013-01-31 02:13:00,
2013-01-30 21:28:00,53.4,50.0,29.43,South,178,1.0,-999.0,89,-99.99,,,0.07,0,weatherlink.com 1.10,2013-01-31 02:28:00,
2013-01-30 21:43:00,53.2,50.0,29.41,West,260,7.0,-999.0,89,-99.99,,,0.07,0,weatherlink.com 1.10,2013-01-31 02:43:00,
2013-01-30 21:58:00,53.5,50.0,29.40,NE,38,2.0,-999.0,88,-99.99,,,0.08,0,weatherlink.com 1.10,2013-01-31 02:58:00,
2013-01-30 22:13:00,53.5,50.0,29.40,SSW,195,5.0,-999.0,88,-99.99,,,0.08,0,weatherlink.com 1.10,2013-01-31 03:13:00,
2013-01-30 22:28:00,53.3,50.0,29.39,SSW,200,3.0,-999.0,88,-99.99,,,0.09,0,weatherlink.com 1.10,2013-01-31 03:28:00,
2013-01-30 22:43:00,53.0,50.0,29.37,SE,142,6.0,-999.0,89,-99.99,,,0.11,0,weatherlink.com 1.10,2013-01-31 03:43:00,
2013-01-30 22:58:00,52.8,50.0,29.37,South,189,2.0,-999.0,89,-99.99,,,0.12,0,weatherlink.com 1.10,2013-01-31 03:58:00,
2013-01-30 23:13:00,52.4,49.0,29.35,South,181,3.0,-999.0,89,-99.99,,,0.13,0,weatherlink.com 1.10,2013-01-31 04:13:00,
2013-01-30 23:28:00,52.5,49.0,29.33,East,92,3.0,-999.0,89,-99.99,,,0.13,0,weatherlink.com 1.10,2013-01-31 04:28:00,
2013-01-30 23:43:00,52.5,49.0,29.31,ESE,120,7.0,-999.0,89,-99.99,,,0.14,0,weatherlink.com 1.10,2013-01-31 04:43:00,
2013-01-30 23:58:00,52.6,50.0,29.29,East,98,6.0,-999.0,89,-99.99,,,0.14,0,weatherlink.com 1.10,2013-01-31 04:58:00,